When you browse on this site, cookies collect data to enhance your experience and personalize the content and advertising you see.
Visit our Privacy Policy to learn more. By continuing to use the site, you agree to this use of cookies and data.
  • Em Portugal
  • Lista de países
  • Para 7 dias
  • Temperatura da água
  • Mapa do tempo
  • Widgets de tempo
  • user-avatar
    Iniciar Sessão

    Previsão horária em Burgas

    Hoje, 4 Junho, Quinta-feira

    Tempo Temperatura Precipitação Vento Pressão Humidade
    00:00 +13°C° 0.2 mm 2 m/s 755 mmHg 88%
    01:00 +12°C° 0.2 mm 2 m/s 755 mmHg 89%
    02:00 +12°C° 0.2 mm 2 m/s 755 mmHg 90%
    03:00 +12°C° 0 mm 2 m/s 755 mmHg 90%
    04:00 +12°C° 0 mm 2 m/s 755 mmHg 91%
    05:00 +12°C° 0 mm 2 m/s 755 mmHg 91%
    06:00 +14°C° 0 mm 2 m/s 755 mmHg 87%
    07:00 +16°C° 0 mm 2 m/s 755 mmHg 83%
    08:00 +18°C° 0 mm 3 m/s 755 mmHg 80%
    09:00 +19°C° 0 mm 3 m/s 755 mmHg 73%
    10:00 +21°C° 0 mm 4 m/s 755 mmHg 66%
    11:00 +22°C° 0 mm 4 m/s 756 mmHg 59%
    12:00 +23°C° 0.1 mm 4 m/s 756 mmHg 58%
    13:00 +25°C° 0.1 mm 4 m/s 755 mmHg 57%
    14:00 +25°C° 0.1 mm 4 m/s 755 mmHg 56%
    15:00 +25°C° 0 mm 4 m/s 755 mmHg 59%
    16:00 +26°C° 0 mm 3 m/s 755 mmHg 62%
    17:00 +26°C° 0 mm 3 m/s 755 mmHg 64%
    18:00 +24°C° 0 mm 3 m/s 755 mmHg 69%
    19:00 +21°C° 0 mm 3 m/s 755 mmHg 74%
    20:00 +19°C° 0 mm 3 m/s 755 mmHg 80%
    21:00 +18°C° 0 mm 3 m/s 756 mmHg 81%
    22:00 +17°C° 0 mm 3 m/s 756 mmHg 81%
    23:00 +17°C° 0 mm 3 m/s 756 mmHg 82%

    Amanhã, 5 Junho, Sexta-feira

    Tempo Temperatura Precipitação Vento Pressão Humidade
    00:00 +17°C° 0 mm 3 m/s 756 mmHg 83%
    01:00 +16°C° 0 mm 3 m/s 756 mmHg 83%
    02:00 +16°C° 0 mm 3 m/s 756 mmHg 84%
    03:00 +16°C° 0 mm 3 m/s 756 mmHg 85%
    04:00 +16°C° 0 mm 3 m/s 756 mmHg 86%
    05:00 +16°C° 0 mm 3 m/s 756 mmHg 87%
    06:00 +18°C° 0 mm 4 m/s 756 mmHg 82%
    07:00 +19°C° 0 mm 5 m/s 756 mmHg 77%
    08:00 +21°C° 0 mm 6 m/s 756 mmHg 72%
    09:00 +23°C° 0 mm 6 m/s 756 mmHg 68%
    10:00 +24°C° 0 mm 7 m/s 756 mmHg 64%
    11:00 +26°C° 0 mm 7 m/s 756 mmHg 60%
    12:00 +27°C° 0 mm 7 m/s 756 mmHg 57%
    13:00 +27°C° 0 mm 7 m/s 756 mmHg 55%
    14:00 +28°C° 0 mm 7 m/s 755 mmHg 53%
    15:00 +27°C° 0 mm 7 m/s 755 mmHg 56%
    16:00 +26°C° 0 mm 7 m/s 755 mmHg 58%
    17:00 +26°C° 0 mm 6 m/s 755 mmHg 60%
    18:00 +23°C° 0 mm 5 m/s 755 mmHg 61%
    19:00 +21°C° 0 mm 5 m/s 755 mmHg 62%
    20:00 +19°C° 0 mm 4 m/s 755 mmHg 63%
    21:00 +18°C° 0 mm 3 m/s 755 mmHg 64%
    22:00 +18°C° 0 mm 3 m/s 756 mmHg 66%
    23:00 +17°C° 0 mm 3 m/s 756 mmHg 68%

    Depois de amanhã, 6 Junho, Sábado

    Tempo Temperatura Precipitação Vento Pressão Humidade
    00:00 +17°C° 0 mm 2 m/s 756 mmHg 70%
    01:00 +16°C° 0 mm 2 m/s 755 mmHg 72%
    02:00 +16°C° 0 mm 2 m/s 755 mmHg 74%
    03:00 +16°C° 0 mm 2 m/s 755 mmHg 75%
    04:00 +16°C° 0 mm 2 m/s 755 mmHg 75%
    05:00 +15°C° 0 mm 2 m/s 755 mmHg 76%
    06:00 +17°C° 0 mm 2 m/s 755 mmHg 72%
    07:00 +19°C° 0 mm 2 m/s 756 mmHg 68%
    08:00 +21°C° 0 mm 2 m/s 756 mmHg 64%
    09:00 +24°C° 0 mm 2 m/s 756 mmHg 58%
    10:00 +26°C° 0 mm 2 m/s 756 mmHg 51%
    11:00 +27°C° 0 mm 2 m/s 756 mmHg 45%
    12:00 +28°C° 0.1 mm 2 m/s 755 mmHg 46%
    13:00 +28°C° 0.1 mm 2 m/s 755 mmHg 47%
    14:00 +28°C° 0.1 mm 2 m/s 755 mmHg 47%
    15:00 +27°C° 0.2 mm 2 m/s 755 mmHg 53%
    16:00 +26°C° 0.2 mm 2 m/s 754 mmHg 58%
    17:00 +26°C° 0.2 mm 2 m/s 754 mmHg 63%
    18:00 +24°C° 0.1 mm 2 m/s 754 mmHg 68%
    19:00 +21°C° 0.1 mm 2 m/s 754 mmHg 74%
    20:00 +19°C° 0.1 mm 2 m/s 754 mmHg 79%
    21:00 +18°C° 0 mm 2 m/s 755 mmHg 80%
    22:00 +19°C° 0 mm 1 m/s 755 mmHg 81%
    23:00 +18°C° 0 mm 1 m/s 755 mmHg 82%

    7 Junho, Domingo

    Tempo Temperatura Precipitação Vento Pressão Humidade
    00:00 +18°C° 0 mm 1 m/s 755 mmHg 80%
    01:00 +18°C° 0 mm 1 m/s 755 mmHg 79%
    02:00 +18°C° 0 mm 1 m/s 754 mmHg 78%
    03:00 +18°C° 0 mm 1 m/s 754 mmHg 80%
    04:00 +18°C° 0 mm 1 m/s 754 mmHg 82%
    05:00 +16°C° 0 mm 1 m/s 754 mmHg 84%
    06:00 +18°C° 0 mm 2 m/s 755 mmHg 82%
    07:00 +20°C° 0 mm 2 m/s 755 mmHg 80%
    08:00 +22°C° 0 mm 3 m/s 755 mmHg 77%
    09:00 +24°C° 0 mm 3 m/s 755 mmHg 71%
    10:00 +25°C° 0 mm 3 m/s 755 mmHg 65%
    11:00 +27°C° 0 mm 3 m/s 756 mmHg 59%
    12:00 +27°C° 0 mm 3 m/s 755 mmHg 58%
    13:00 +28°C° 0 mm 3 m/s 755 mmHg 56%
    14:00 +28°C° 0 mm 3 m/s 755 mmHg 55%
    15:00 +28°C° 0 mm 3 m/s 755 mmHg 56%
    16:00 +28°C° 0 mm 2 m/s 755 mmHg 58%
    17:00 +28°C° 0 mm 2 m/s 754 mmHg 59%
    18:00 +26°C° 0 mm 2 m/s 755 mmHg 65%
    19:00 +24°C° 0 mm 2 m/s 755 mmHg 72%
    20:00 +22°C° 0 mm 1 m/s 755 mmHg 78%
    21:00 +21°C° 0 mm 1 m/s 755 mmHg 80%
    22:00 +21°C° 0 mm 1 m/s 756 mmHg 82%
    23:00 +20°C° 0 mm 1 m/s 756 mmHg 84%

    8 Junho, Segunda-feira

    Tempo Temperatura Precipitação Vento Pressão Humidade
    00:00 +20°C° 0 mm 1 m/s 756 mmHg 84%
    01:00 +20°C° 0 mm 1 m/s 756 mmHg 85%
    02:00 +20°C° 0 mm 1 m/s 755 mmHg 85%
    03:00 +20°C° 0 mm 1 m/s 755 mmHg 85%
    04:00 +19°C° 0 mm 1 m/s 755 mmHg 84%
    05:00 +19°C° 0 mm 1 m/s 755 mmHg 84%
    06:00 +21°C° 0 mm 1 m/s 756 mmHg 79%
    07:00 +23°C° 0 mm 1 m/s 756 mmHg 74%
    08:00 +25°C° 0 mm 1 m/s 756 mmHg 69%
    09:00 +27°C° 0 mm 1 m/s 756 mmHg 65%
    10:00 +28°C° 0 mm 1 m/s 756 mmHg 60%
    11:00 +29°C° 0 mm 1 m/s 756 mmHg 56%
    12:00 +30°C° 0 mm 2 m/s 756 mmHg 55%
    13:00 +30°C° 0 mm 2 m/s 756 mmHg 54%
    14:00 +30°C° 0 mm 3 m/s 755 mmHg 53%
    15:00 +29°C° 0.1 mm 3 m/s 755 mmHg 57%
    16:00 +28°C° 0.1 mm 3 m/s 755 mmHg 61%
    17:00 +27°C° 0.1 mm 3 m/s 755 mmHg 65%
    18:00 +26°C° 0 mm 3 m/s 755 mmHg 68%
    19:00 +24°C° 0 mm 2 m/s 755 mmHg 72%
    20:00 +21°C° 0 mm 2 m/s 755 mmHg 75%
    21:00 +21°C° 0 mm 2 m/s 755 mmHg 75%
    22:00 +21°C° 0 mm 1 m/s 755 mmHg 75%
    23:00 +21°C° 0 mm 1 m/s 756 mmHg 75%

    9 Junho, Terça-feira

    Tempo Temperatura Precipitação Vento Pressão Humidade
    00:00 +21°C° 0 mm 1 m/s 755 mmHg 76%
    01:00 +20°C° 0 mm 1 m/s 755 mmHg 77%
    02:00 +20°C° 0 mm 1 m/s 755 mmHg 78%
    03:00 +18°C° 0 mm 0 m/s 755 mmHg 79%
    04:00 +18°C° 0 mm 0 m/s 755 mmHg 79%
    05:00 +18°C° 0 mm 0 m/s 755 mmHg 80%
    06:00 +20°C° 0 mm 0 m/s 756 mmHg 76%
    07:00 +21°C° 0 mm 0 m/s 756 mmHg 72%
    08:00 +23°C° 0 mm 0 m/s 756 mmHg 68%
    09:00 +26°C° 0 mm 1 m/s 756 mmHg 65%
    10:00 +28°C° 0 mm 1 m/s 756 mmHg 61%
    11:00 +29°C° 0 mm 2 m/s 756 mmHg 58%
    12:00 +29°C° 0.2 mm 2 m/s 756 mmHg 57%
    13:00 +29°C° 0.2 mm 2 m/s 756 mmHg 56%
    14:00 +30°C° 0.2 mm 2 m/s 756 mmHg 56%
    15:00 +29°C° 0.2 mm 3 m/s 756 mmHg 61%
    16:00 +28°C° 0.2 mm 3 m/s 755 mmHg 66%
    17:00 +26°C° 0.2 mm 4 m/s 755 mmHg 71%
    18:00 +25°C° 0.1 mm 3 m/s 755 mmHg 75%
    19:00 +22°C° 0.1 mm 3 m/s 755 mmHg 79%
    20:00 +20°C° 0.1 mm 2 m/s 755 mmHg 83%
    21:00 +20°C° 0 mm 2 m/s 756 mmHg 84%
    22:00 +20°C° 0 mm 1 m/s 756 mmHg 85%
    23:00 +20°C° 0 mm 1 m/s 756 mmHg 86%
    Mostrar mais